sat.trackr.live / text

‹ back to catalog

FLOCK 4BE-5

NORAD 60559 · 2024-149CV

PAYLOAD ACTIVE UNKNOWN

§ Identity

Operator
Country
US
Launch date
2024-08-16
Launch site
AFWTR
Launch vehicle
Mass (kg)
RCS (m²)

Purposes: earth_obs

External: N2YO · Heavens-Above · Gunter

§ Orbital elements

Epoch: 2026-05-25T05:15:49.934016Z

Period
93.54 min
Inclination
97.3841°
Eccentricity
0.0003499
Mean motion
15.39523950 rev/d
Perigee alt
445.1 km
Apogee alt
449.9 km
Semi-major
6,825.7 km
B*
3.8779e-4
RAAN
229.0107°
Arg perigee
47.1423°
Mean anomaly
313.0116°
Rev number
9,874

§ Raw data

FLOCK 4BE-51 60559U 24149CV  26145.21932794  .00015163  00000+0  38779-3 0  99922 60559  97.3841 229.0107 0003499  47.1423 313.0116 15.39523950 98741

JSON: /api/v1/satellites/60559 · /tle

For live sub-satellite position, see the globe view (requires WebGL).

§ Visibility from observer

Set your observer location to see the next 7 days of passes ≥ 10°. The values pass through the URL so the page stays shareable.

No JS? Fill the form by hand. The geolocation button needs JavaScript.